Showing default

ORBCOMM FM 18, 25414

Orbit data source: Space-Track

ORBCOMM FM 18, 25414 is a payload satellite owned by Orbcomm (US) in LEO that was launched on Sun, 02 Aug 1998 UTC via a PEGASUS XL/HAPS launch vehicle from the Pegasus Launch, Eastern Range Air Space (ERAS). Payloads include a variety of satellites, spacecraft, and rockets equipped with specific instruments for various scientific and technological missions. These include communications satellites like Starlink; space stations such as the ISS; scientific satellites like the Hubble; Earth observation satellites from companies like Planet Labs, Umbra, and HawkEye 360; GPS; miniature CubeSats for education and research; and military/defense satellites.

Loading next visibility...
ORBCOMM FM 18 details
Identifier
25414, 1998-046B
Orbit
LEO
Last TLE update10 hours ago
Origin
Flag of USOrbcomm (US / ORB)
ManufacturerOSC-Germantown
MissionNon-operational Commercial Communications
Bus & MotorMICROSTAR, Unknown motor
Mass42 kg wet, 42 kg dry
Launch date (UTC)
1998-08-02 (26 years ago)
Launch vehicle
PEGASUS XL/HAPS
Launch site
Pegasus Launch, Eastern Range Air Space (ERAS)
Object type
Payload
Rocket body
Debris
Shape & HBRCyl + 2 Pan, 4.3 m
Radar Cross Section1.484 m², Medium (>0.1 m² and < 1m²)

Expand to show TLE details & history

TLE from 10 hours ago
0 ORBCOMM FM 18
1 25414U 98046B   24361.44962150  .00003792  00000-0  12983-2 0  9996
2 25414  44.9929 274.3229 0003732 115.9744 244.1489 14.37611793379384
Epoch: 2024-12-26T10:47Z
Definitive object data (Epoch: 2024-12-26T10:47:27.297Z)
Latitude
Longitude17.03031°
Altitude767.561 km
Speed7.471 km/s
True Right ascension18h 17m 17s
True Declination0° 00' 00"
Sunlit
Object was in daylight at TLE epoch
Visualization TLE readout
Latitude33.99843°
Longitude57.15333°
Altitude766.839 km
Speed7.476 km/s
Apparent Right ascension23h 08m 36s
Apparent Declination-4° 16' 03"
Sunlit
Object is in daylight
Visualization observer readout
Local Sidereal Time20:25:14
Azimuth129.684° SE
Elevation32.064°
Doppler factor1
Orbital elements
Apogee altitude770.614 km
Perigee altitude765.28 km
Semi-major axis7,146.084 km
Eccentricity0.0003732
Inclination44.9929°
RAAN274.3229°
Arg. of periapsis115.9744°
True anomaly244.11042°
Mean anomaly244.1489°
Eccentric anomaly244.12966°
Mean motion3.59287 °/min
BSTAR0.0012983
Orbital period100.2 mins
Loading maneuver chart data...

ORBCOMM FM 18 Visibility forecast

Observer location: undefined°, undefined

Span
Click to sort rows by Start time (UTC) header in descending order
Start Az.
Max El. time (UTC)
Max El. Az.
Max El.
End time (UTC)
End Az.
4 mins2024-12-26 21:02:18.567Z130.106° SE2024-12-26 21:02:18.567Z130.106° SE27.747°2024-12-26 21:06:18.567Z80.731° E
8 mins2024-12-26 22:43:18.567Z253.27° W2024-12-26 22:46:18.567Z284.217° WNW43.664°2024-12-26 22:51:18.567Z65.317° ENE
9 mins2024-12-27 00:28:18.567Z286.878° WNW2024-12-27 00:32:18.567Z353.389° N37.051°2024-12-27 00:37:18.567Z72.321° E
9 mins2024-12-27 02:14:18.567Z297.243° NW2024-12-27 02:18:18.567Z28.706° NE42.856°2024-12-27 02:23:18.567Z101.151° ESE
7 mins2024-12-27 04:00:18.567Z273.44° WNW2024-12-27 04:03:18.567Z215.116° SW33.865°2024-12-27 04:07:18.567Z150.227° SSE
7 mins2024-12-27 20:19:18.567Z180.453° SSW2024-12-27 20:22:18.567Z134.04° SE23.369°2024-12-27 20:26:18.567Z84.986° E
|